Location: Unspecified
(44.0704°N, 88.6889°W)
Time: 02:39:21
(UTC+01:00)

CZ-3 Stage 3 - Visible Passes

Search period start: 26 February 2018 00:00
Search period end: 08 March 2018 00:00
Orbit: 437 x 34760 km, 31.0° (Epoch: 25 February)

Date Brightness Start Highest point End Pass type
(mag) Time Alt. Az. Time Alt. Az. Time Alt. Az.
27 Feb 4.3 01:08:52 10° WSW 01:12:04 15° SSW 01:14:06 10° SSE visible
28 Feb 7.6 13:38:57 10° SSE 17:34:32 26° SSE 17:59:48 10° ESE visible
03 Mar 7.6 13:21:21 10° SSE 17:25:24 27° SSE 17:50:45 10° ESE visible
06 Mar 7.6 13:04:02 10° SSE 17:16:15 28° SSE 17:41:41 10° ESE visible
